Time,TemperatureF,DewpointF,PressureIn,WindDirection,WindDirectionDegrees,WindSpeedMPH,WindSpeedGustMPH,Humidity,HourlyPrecipIn,Conditions,Clouds,dailyrainin,SoftwareType,DateUTC
2013-01-30 00:03:00,66.6,63.3,29.77,SSW,192,9.0,10.0,89,0.00,,SKC,0.00,VWS V13.00,2013-01-30 06:03:00,
2013-01-30 00:08:00,66.5,63.2,29.77,SSW,196,10.0,15.0,89,0.00,,SKC,0.00,VWS V13.00,2013-01-30 06:08:00,
2013-01-30 00:13:00,66.5,63.5,29.77,South,188,9.0,15.0,90,0.00,,SKC,0.00,VWS V13.00,2013-01-30 06:13:00,
2013-01-30 00:18:00,66.6,63.3,29.77,SSW,197,11.0,15.0,89,0.00,,SKC,0.00,VWS V13.00,2013-01-30 06:18:00,
2013-01-30 00:23:00,66.7,63.4,29.76,South,173,9.0,15.0,89,0.00,,SKC,0.00,VWS V13.00,2013-01-30 06:23:00,
2013-01-30 00:28:00,66.6,63.3,29.76,SW,215,6.0,18.0,89,0.00,,SKC,0.00,VWS V13.00,2013-01-30 06:28:00,
2013-01-30 00:33:00,66.6,63.6,29.75,South,184,9.0,15.0,90,0.00,,SKC,0.00,VWS V13.00,2013-01-30 06:33:00,
2013-01-30 00:38:00,66.5,63.5,29.75,South,175,2.0,15.0,90,0.00,,SKC,0.00,VWS V13.00,2013-01-30 06:38:00,
2013-01-30 00:43:00,66.6,63.6,29.75,South,183,6.0,21.0,90,0.00,,SKC,0.00,VWS V13.00,2013-01-30 06:43:00,
2013-01-30 00:48:00,66.6,63.6,29.75,South,175,5.0,21.0,90,0.00,,SKC,0.00,VWS V13.00,2013-01-30 06:48:00,
2013-01-30 00:53:00,66.6,63.6,29.74,SSW,200,9.0,21.0,90,0.00,,SKC,0.00,VWS V13.00,2013-01-30 06:53:00,
2013-01-30 00:58:00,66.7,63.7,29.75,South,190,10.0,21.0,90,0.00,,SKC,0.00,VWS V13.00,2013-01-30 06:58:00,
2013-01-30 01:03:00,66.7,63.7,29.74,SSW,192,8.0,16.0,90,0.00,,SKC,0.00,VWS V13.00,2013-01-30 07:03:00,
2013-01-30 01:08:00,66.8,63.8,29.74,South,188,8.0,16.0,90,0.00,,SKC,0.00,VWS V13.00,2013-01-30 07:08:00,
2013-01-30 01:13:00,66.8,63.8,29.73,SSW,204,15.0,18.0,90,0.00,,SKC,0.00,VWS V13.00,2013-01-30 07:13:00,
2013-01-30 01:18:00,66.8,63.8,29.73,South,174,6.0,21.0,90,0.00,,SKC,0.00,VWS V13.00,2013-01-30 07:18:00,
2013-01-30 01:23:00,66.6,63.6,29.73,SSW,196,8.0,21.0,90,0.00,,SKC,0.00,VWS V13.00,2013-01-30 07:23:00,
2013-01-30 01:28:00,66.3,63.9,29.73,South,184,8.0,21.0,92,0.01,,SKC,0.01,VWS V13.00,2013-01-30 07:28:00,
2013-01-30 01:33:00,65.9,63.8,29.73,SSW,209,9.0,13.0,93,0.01,,SKC,0.01,VWS V13.00,2013-01-30 07:33:00,
2013-01-30 01:38:00,65.7,63.6,29.72,South,169,7.0,15.0,93,0.01,,SKC,0.01,VWS V13.00,2013-01-30 07:38:00,
2013-01-30 01:43:00,65.7,63.6,29.72,SW,223,14.0,15.0,93,0.01,,SKC,0.01,VWS V13.00,2013-01-30 07:43:00,
2013-01-30 01:48:00,65.6,63.8,29.72,SSW,197,9.0,16.0,94,0.01,,SKC,0.01,VWS V13.00,2013-01-30 07:48:00,
2013-01-30 01:53:00,65.5,63.7,29.72,SSE,164,8.0,23.0,94,0.02,,SKC,0.02,VWS V13.00,2013-01-30 07:53:00,
2013-01-30 01:58:00,65.4,63.9,29.71,SSE,163,9.0,23.0,95,0.02,,SKC,0.02,VWS V13.00,2013-01-30 07:58:00,
2013-01-30 02:03:00,65.4,63.9,29.71,South,184,13.0,15.0,95,0.02,,SKC,0.02,VWS V13.00,2013-01-30 08:03:00,
2013-01-30 02:08:00,65.3,63.8,29.71,SSW,195,11.0,18.0,95,0.03,,SKC,0.04,VWS V13.00,2013-01-30 08:08:00,
2013-01-30 02:13:00,65.4,63.9,29.70,SW,229,19.0,23.0,95,0.04,,SKC,0.04,VWS V13.00,2013-01-30 08:13:00,
2013-01-30 02:18:00,65.6,64.1,29.70,South,189,10.0,23.0,95,0.04,,SKC,0.04,VWS V13.00,2013-01-30 08:18:00,
2013-01-30 02:23:00,65.7,64.2,29.70,SSW,194,10.0,23.0,95,0.04,,SKC,0.04,VWS V13.00,2013-01-30 08:23:00,
2013-01-30 02:28:00,65.8,64.3,29.69,WSW,248,6.0,23.0,95,0.04,,SKC,0.04,VWS V13.00,2013-01-30 08:28:00,
2013-01-30 02:33:00,65.9,64.4,29.69,SSW,196,14.0,24.0,95,0.04,,SKC,0.04,VWS V13.00,2013-01-30 08:33:00,
2013-01-30 02:38:00,66.2,64.4,29.69,SSW,209,13.0,30.0,94,0.03,,SKC,0.04,VWS V13.00,2013-01-30 08:38:00,
2013-01-30 02:43:00,66.3,64.5,29.69,South,182,18.0,30.0,94,0.03,,SKC,0.04,VWS V13.00,2013-01-30 08:43:00,
2013-01-30 02:48:00,66.6,64.5,29.69,SSW,206,10.0,30.0,93,0.03,,SKC,0.04,VWS V13.00,2013-01-30 08:48:00,
2013-01-30 02:53:00,66.7,64.6,29.69,SSW,204,18.0,30.0,93,0.03,,SKC,0.04,VWS V13.00,2013-01-30 08:53:00,
2013-01-30 02:58:00,66.8,64.7,29.69,SW,226,6.0,30.0,93,0.03,,SKC,0.04,VWS V13.00,2013-01-30 08:58:00,
2013-01-30 03:03:00,67.0,64.6,29.68,SW,234,15.0,19.0,92,0.03,,SKC,0.04,VWS V13.00,2013-01-30 09:03:00,
2013-01-30 03:08:00,67.3,64.9,29.68,South,182,12.0,21.0,92,0.02,,SKC,0.04,VWS V13.00,2013-01-30 09:08:00,
2013-01-30 03:13:00,67.4,64.7,29.68,SSW,198,9.0,21.0,91,0.02,,SKC,0.04,VWS V13.00,2013-01-30 09:13:00,
2013-01-30 03:18:00,67.3,64.9,29.68,SSW,196,10.0,21.0,92,0.02,,SKC,0.04,VWS V13.00,2013-01-30 09:18:00,
2013-01-30 03:23:00,67.4,64.7,29.68,SSW,209,11.0,21.0,91,0.02,,SKC,0.04,VWS V13.00,2013-01-30 09:23:00,
2013-01-30 03:28:00,67.6,64.9,29.67,SSW,192,13.0,26.0,91,0.02,,SKC,0.04,VWS V13.00,2013-01-30 09:28:00,
2013-01-30 03:33:00,67.8,65.1,29.67,SSW,194,20.0,24.0,91,0.02,,SKC,0.04,VWS V13.00,2013-01-30 09:33:00,
2013-01-30 03:38:00,67.9,64.9,29.66,SW,221,13.0,28.0,90,0.00,,SKC,0.04,VWS V13.00,2013-01-30 09:38:00,
2013-01-30 03:43:00,68.0,65.0,29.65,SSW,197,13.0,28.0,90,0.00,,SKC,0.04,VWS V13.00,2013-01-30 09:43:00,
2013-01-30 03:48:00,68.0,65.0,29.65,SSW,206,12.0,28.0,90,0.00,,SKC,0.04,VWS V13.00,2013-01-30 09:48:00,
2013-01-30 03:52:00,68.1,65.1,29.65,South,179,21.0,28.0,90,0.00,,SKC,0.04,VWS V13.00,2013-01-30 09:52:00,
2013-01-30 03:57:00,68.2,65.2,29.65,WSW,244,16.0,28.0,90,0.00,,SKC,0.04,VWS V13.00,2013-01-30 09:57:00,
2013-01-30 04:02:00,68.2,65.2,29.64,South,186,11.0,18.0,90,0.00,,SKC,0.04,VWS V13.00,2013-01-30 10:02:00,
2013-01-30 04:07:00,68.2,65.2,29.63,SSW,204,14.0,23.0,90,0.00,,SKC,0.04,VWS V13.00,2013-01-30 10:07:00,
2013-01-30 04:12:00,68.2,65.2,29.64,WSW,238,14.0,23.0,90,0.00,,SKC,0.04,VWS V13.00,2013-01-30 10:12:00,
2013-01-30 04:17:00,68.4,65.0,29.63,South,183,13.0,28.0,89,0.00,,SKC,0.04,VWS V13.00,2013-01-30 10:17:00,
2013-01-30 04:22:00,68.4,65.0,29.62,South,189,18.0,28.0,89,0.00,,SKC,0.04,VWS V13.00,2013-01-30 10:22:00,
2013-01-30 04:27:00,68.3,65.3,29.62,SSW,209,11.0,28.0,90,0.00,,SKC,0.04,VWS V13.00,2013-01-30 10:27:00,
2013-01-30 04:32:00,68.3,64.9,29.63,SSW,210,15.0,16.0,89,0.00,,SKC,0.04,VWS V13.00,2013-01-30 10:32:00,
2013-01-30 04:37:00,68.4,65.0,29.62,SSW,211,16.0,24.0,89,0.00,,SKC,0.04,VWS V13.00,2013-01-30 10:37:00,
2013-01-30 04:42:00,68.6,65.2,29.61,SSW,196,29.0,31.0,89,0.00,,SKC,0.04,VWS V13.00,2013-01-30 10:42:00,
2013-01-30 04:47:00,68.8,65.1,29.61,South,190,15.0,31.0,88,0.00,,SKC,0.04,VWS V13.00,2013-01-30 10:47:00,
2013-01-30 04:52:00,68.7,65.3,29.61,SSW,195,16.0,31.0,89,0.00,,SKC,0.04,VWS V13.00,2013-01-30 10:52:00,
2013-01-30 04:57:00,68.6,65.2,29.61,SSE,165,15.0,31.0,89,0.00,,SKC,0.04,VWS V13.00,2013-01-30 10:57:00,
2013-01-30 05:02:00,68.6,65.2,29.61,SSW,211,12.0,12.0,89,0.00,,SKC,0.04,VWS V13.00,2013-01-30 11:02:00,
2013-01-30 05:07:00,68.7,65.3,29.61,SSW,192,18.0,25.0,89,0.00,,SKC,0.04,VWS V13.00,2013-01-30 11:07:00,
2013-01-30 05:12:00,68.7,65.3,29.61,SSW,205,10.0,25.0,89,0.00,,SKC,0.04,VWS V13.00,2013-01-30 11:12:00,
2013-01-30 05:17:00,68.6,65.2,29.61,SSW,198,13.0,25.0,89,0.00,,SKC,0.04,VWS V13.00,2013-01-30 11:17:00,
2013-01-30 05:22:00,68.7,65.3,29.61,SSW,200,16.0,26.0,89,0.00,,SKC,0.04,VWS V13.00,2013-01-30 11:22:00,
2013-01-30 05:27:00,68.8,65.4,29.60,South,191,12.0,27.0,89,0.00,,SKC,0.04,VWS V13.00,2013-01-30 11:27:00,
2013-01-30 05:32:00,68.8,65.4,29.60,South,190,12.0,16.0,89,0.00,,SKC,0.04,VWS V13.00,2013-01-30 11:32:00,
2013-01-30 05:37:00,68.9,65.5,29.60,SW,236,12.0,23.0,89,0.00,,SKC,0.04,VWS V13.00,2013-01-30 11:37:00,
2013-01-30 05:42:00,69.0,65.6,29.60,South,180,15.0,33.0,89,0.00,,SKC,0.04,VWS V13.00,2013-01-30 11:42:00,
2013-01-30 05:47:00,69.0,65.6,29.60,WSW,250,10.0,33.0,89,0.00,,SKC,0.04,VWS V13.00,2013-01-30 11:47:00,
2013-01-30 05:52:00,68.9,65.5,29.59,SSW,200,18.0,33.0,89,0.00,,SKC,0.04,VWS V13.00,2013-01-30 11:52:00,
2013-01-30 05:57:00,68.6,65.6,29.59,South,182,6.0,33.0,90,0.00,,SKC,0.04,VWS V13.00,2013-01-30 11:57:00,
2013-01-30 06:02:00,68.5,65.8,29.59,SSW,196,11.0,19.0,91,0.00,,SKC,0.04,VWS V13.00,2013-01-30 12:02:00,
2013-01-30 06:07:00,68.1,65.7,29.59,SSW,198,9.0,24.0,92,0.01,,SKC,0.05,VWS V13.00,2013-01-30 12:07:00,
2013-01-30 06:12:00,67.9,65.5,29.58,SSW,207,10.0,24.0,92,0.01,,SKC,0.05,VWS V13.00,2013-01-30 12:12:00,
2013-01-30 06:17:00,67.9,65.5,29.59,SW,219,12.0,26.0,92,0.01,,SKC,0.05,VWS V13.00,2013-01-30 12:17:00,
2013-01-30 06:22:00,68.2,65.5,29.59,SW,233,18.0,32.0,91,0.01,,SKC,0.05,VWS V13.00,2013-01-30 12:22:00,
2013-01-30 06:27:00,68.3,65.6,29.59,SSE,164,9.0,32.0,91,0.01,,SKC,0.05,VWS V13.00,2013-01-30 12:27:00,
2013-01-30 06:32:00,68.4,65.7,29.59,SSW,205,15.0,15.0,91,0.01,,SKC,0.05,VWS V13.00,2013-01-30 12:32:00,
2013-01-30 06:37:00,68.5,65.8,29.59,SSW,202,12.0,24.0,91,0.01,,SKC,0.05,VWS V13.00,2013-01-30 12:37:00,
2013-01-30 06:42:00,68.5,65.8,29.59,SSW,209,13.0,26.0,91,0.01,,SKC,0.05,VWS V13.00,2013-01-30 12:42:00,
2013-01-30 06:47:00,68.6,65.6,29.59,SSW,211,22.0,27.0,90,0.02,,SKC,0.06,VWS V13.00,2013-01-30 12:47:00,
2013-01-30 06:52:00,68.8,65.8,29.59,South,185,10.0,30.0,90,0.02,,SKC,0.06,VWS V13.00,2013-01-30 12:52:00,
2013-01-30 06:57:00,68.8,65.8,29.59,SW,234,8.0,30.0,90,0.02,,SKC,0.06,VWS V13.00,2013-01-30 12:57:00,
2013-01-30 07:02:00,68.7,65.7,29.59,SSW,207,19.0,19.0,90,0.02,,SKC,0.06,VWS V13.00,2013-01-30 13:02:00,
2013-01-30 07:07:00,68.8,65.8,29.58,SW,216,14.0,23.0,90,0.02,,SKC,0.06,VWS V13.00,2013-01-30 13:07:00,
2013-01-30 07:12:00,68.9,65.5,29.58,SW,225,28.0,28.0,89,0.02,,SKC,0.06,VWS V13.00,2013-01-30 13:12:00,
2013-01-30 07:17:00,69.2,65.5,29.58,South,187,14.0,29.0,88,0.02,,SKC,0.06,VWS V13.00,2013-01-30 13:17:00,
2013-01-30 07:22:00,69.2,65.5,29.59,SSW,194,11.0,29.0,88,0.02,,SKC,0.06,VWS V13.00,2013-01-30 13:22:00,
2013-01-30 07:27:00,69.4,65.7,29.58,SSW,209,7.0,30.0,88,0.02,,SKC,0.06,VWS V13.00,2013-01-30 13:27:00,
2013-01-30 07:32:00,69.3,65.6,29.58,South,184,12.0,12.0,88,0.02,,SKC,0.06,VWS V13.00,2013-01-30 13:32:00,
2013-01-30 07:37:00,69.3,65.6,29.58,SSW,192,12.0,22.0,88,0.01,,SKC,0.06,VWS V13.00,2013-01-30 13:37:00,
2013-01-30 07:42:00,69.4,65.7,29.58,South,175,8.0,29.0,88,0.01,,SKC,0.06,VWS V13.00,2013-01-30 13:42:00,
2013-01-30 07:47:00,69.4,65.7,29.58,West,261,6.0,29.0,88,0.01,,SKC,0.06,VWS V13.00,2013-01-30 13:47:00,
2013-01-30 07:52:00,68.3,60.5,29.59,WNW,283,18.0,29.0,76,0.01,,SKC,0.06,VWS V13.00,2013-01-30 13:52:00,
2013-01-30 07:57:00,63.4,57.5,29.60,WNW,296,13.0,29.0,81,0.01,,SKC,0.06,VWS V13.00,2013-01-30 13:57:00,
2013-01-30 08:02:00,61.3,57.1,29.59,NNW,327,4.0,29.0,86,0.01,,SKC,0.06,VWS V13.00,2013-01-30 14:02:00,
2013-01-30 08:07:00,59.7,56.8,29.61,North,355,5.0,13.0,90,0.02,,SKC,0.08,VWS V13.00,2013-01-30 14:07:00,
2013-01-30 08:12:00,58.7,56.4,29.62,NW,309,6.0,13.0,92,0.03,,SKC,0.10,VWS V13.00,2013-01-30 14:12:00,
2013-01-30 08:17:00,57.9,56.2,29.61,NW,322,8.0,13.0,94,0.14,,SKC,0.24,VWS V13.00,2013-01-30 14:17:00,
2013-01-30 08:22:00,57.4,55.7,29.59,North,355,2.0,13.0,94,0.30,,SKC,0.38,VWS V13.00,2013-01-30 14:22:00,
2013-01-30 08:27:00,57.1,55.7,29.62,WSW,247,2.0,13.0,95,0.36,,SKC,0.43,VWS V13.00,2013-01-30 14:27:00,
2013-01-30 08:32:00,56.8,55.7,29.58,NW,323,10.0,13.0,96,0.49,,SKC,0.57,VWS V13.00,2013-01-30 14:32:00,
2013-01-30 08:37:00,56.6,55.5,29.62,NW,322,6.0,13.0,96,0.59,,SKC,0.67,VWS V13.00,2013-01-30 14:37:00,
2013-01-30 08:42:00,56.5,55.4,29.61,NNW,329,4.0,13.0,96,0.67,,SKC,0.73,VWS V13.00,2013-01-30 14:42:00,
2013-01-30 08:47:00,56.4,55.3,29.62,West,261,6.0,13.0,96,0.69,,SKC,0.75,VWS V13.00,2013-01-30 14:47:00,
2013-01-30 08:52:00,56.4,55.6,29.60,WNW,302,4.0,13.0,97,0.69,,SKC,0.75,VWS V13.00,2013-01-30 14:52:00,
2013-01-30 08:57:00,56.4,55.6,29.62,SW,217,0.0,13.0,97,0.69,,SKC,0.75,VWS V13.00,2013-01-30 14:57:00,
2013-01-30 09:02:00,56.4,55.6,29.61,SSE,166,2.0,13.0,97,0.70,,SKC,0.76,VWS V13.00,2013-01-30 15:02:00,
2013-01-30 09:07:00,56.4,55.6,29.62,NNW,348,7.0,11.0,97,0.70,,SKC,0.77,VWS V13.00,2013-01-30 15:07:00,
2013-01-30 09:12:00,56.4,55.6,29.60,West,280,2.0,11.0,97,0.73,,SKC,0.79,VWS V13.00,2013-01-30 15:12:00,
2013-01-30 09:17:00,56.3,55.5,29.61,WNW,299,3.0,11.0,97,0.75,,SKC,0.82,VWS V13.00,2013-01-30 15:17:00,
2013-01-30 09:22:00,56.3,55.5,29.61,West,263,1.0,11.0,97,0.78,,SKC,0.85,VWS V13.00,2013-01-30 15:22:00,
2013-01-30 09:27:00,56.3,55.5,29.62,South,186,2.0,11.0,97,0.84,,SKC,0.90,VWS V13.00,2013-01-30 15:27:00,
2013-01-30 09:32:00,56.3,55.5,29.61,SW,225,4.0,11.0,97,0.85,,SKC,0.91,VWS V13.00,2013-01-30 15:32:00,
2013-01-30 09:37:00,56.3,55.5,29.61,SW,232,0.0,5.0,97,0.36,,SKC,0.94,VWS V13.00,2013-01-30 15:37:00,
2013-01-30 09:42:00,56.2,55.4,29.61,SW,232,0.0,5.0,97,0.38,,SKC,0.95,VWS V13.00,2013-01-30 15:42:00,
2013-01-30 09:47:00,56.2,55.4,29.60,WNW,297,3.0,5.0,97,0.40,,SKC,0.97,VWS V13.00,2013-01-30 15:47:00,
2013-01-30 09:52:00,56.2,55.4,29.62,WSW,257,5.0,6.0,97,0.42,,SKC,0.99,VWS V13.00,2013-01-30 15:52:00,
2013-01-30 09:57:00,56.2,55.4,29.62,WSW,257,2.0,6.0,97,0.44,,SKC,1.01,VWS V13.00,2013-01-30 15:57:00,
2013-01-30 10:02:00,56.2,55.4,29.61,WSW,256,2.0,6.0,97,0.46,,SKC,1.03,VWS V13.00,2013-01-30 16:02:00,
2013-01-30 10:07:00,56.2,55.4,29.60,WSW,257,0.0,2.0,97,0.29,,SKC,1.05,VWS V13.00,2013-01-30 16:07:00,
2013-01-30 10:12:00,56.2,55.4,29.60,WSW,257,1.0,2.0,97,0.31,,SKC,1.07,VWS V13.00,2013-01-30 16:12:00,
2013-01-30 10:17:00,56.2,55.4,29.60,WSW,256,2.0,2.0,97,0.33,,SKC,1.09,VWS V13.00,2013-01-30 16:17:00,
2013-01-30 10:22:00,56.3,55.8,29.59,WSW,256,0.0,2.0,98,0.36,,SKC,1.13,VWS V13.00,2013-01-30 16:22:00,
2013-01-30 10:27:00,56.3,55.8,29.60,SSW,199,4.0,5.0,98,0.39,,SKC,1.15,VWS V13.00,2013-01-30 16:27:00,
2013-01-30 10:32:00,56.3,55.8,29.60,South,183,4.0,6.0,98,0.40,,SKC,1.17,VWS V13.00,2013-01-30 16:32:00,
2013-01-30 10:37:00,56.4,55.8,29.59,SSE,165,2.0,4.0,98,0.27,,SKC,1.18,VWS V13.00,2013-01-30 16:37:00,
2013-01-30 10:42:00,56.4,55.8,29.60,SSE,167,3.0,13.0,98,0.28,,SKC,1.19,VWS V13.00,2013-01-30 16:42:00,
2013-01-30 10:47:00,56.6,56.0,29.59,South,187,5.0,13.0,98,0.28,,SKC,1.19,VWS V13.00,2013-01-30 16:47:00,
2013-01-30 10:52:00,56.5,55.9,29.59,South,178,6.0,13.0,98,0.28,,SKC,1.19,VWS V13.00,2013-01-30 16:52:00,
2013-01-30 10:57:00,56.6,56.0,29.58,SW,226,1.0,13.0,98,0.29,,SKC,1.20,VWS V13.00,2013-01-30 16:57:00,
2013-01-30 11:02:00,56.7,56.1,29.58,SSW,211,3.0,13.0,98,0.29,,SKC,1.20,VWS V13.00,2013-01-30 17:02:00,
2013-01-30 11:07:00,56.9,56.3,29.59,SW,228,3.0,6.0,98,0.18,,SKC,1.21,VWS V13.00,2013-01-30 17:07:00,
2013-01-30 11:12:00,57.0,56.4,29.59,SW,224,4.0,8.0,98,0.18,,SKC,1.21,VWS V13.00,2013-01-30 17:12:00,
2013-01-30 11:16:00,56.9,56.3,29.60,SW,234,7.0,10.0,98,0.18,,SKC,1.22,VWS V13.00,2013-01-30 17:16:00,
2013-01-30 11:21:00,56.9,56.3,29.60,SW,221,8.0,10.0,98,0.20,,SKC,1.23,VWS V13.00,2013-01-30 17:21:00,
2013-01-30 11:26:00,56.9,56.3,29.59,SW,219,7.0,10.0,98,0.22,,SKC,1.25,VWS V13.00,2013-01-30 17:26:00,
2013-01-30 11:31:00,56.9,56.1,29.58,WNW,283,7.0,10.0,97,0.22,,SKC,1.25,VWS V13.00,2013-01-30 17:31:00,
2013-01-30 11:36:00,56.9,55.8,29.58,West,261,14.0,15.0,96,0.10,,SKC,1.27,VWS V13.00,2013-01-30 17:36:00,
2013-01-30 11:41:00,56.7,55.6,29.58,SW,227,5.0,15.0,96,0.11,,SKC,1.28,VWS V13.00,2013-01-30 17:41:00,
2013-01-30 11:46:00,56.5,55.4,29.58,WNW,284,10.0,18.0,96,0.12,,SKC,1.30,VWS V13.00,2013-01-30 17:46:00,
2013-01-30 11:51:00,56.3,55.2,29.58,West,277,8.0,18.0,96,0.14,,SKC,1.31,VWS V13.00,2013-01-30 17:51:00,
2013-01-30 11:56:00,55.9,54.5,29.58,West,269,13.0,19.0,95,0.16,,SKC,1.33,VWS V13.00,2013-01-30 17:56:00,
2013-01-30 12:01:00,55.3,53.3,29.57,WSW,252,10.0,19.0,93,0.17,,SKC,1.34,VWS V13.00,2013-01-30 18:01:00,
2013-01-30 12:06:00,54.8,53.1,29.58,WSW,254,14.0,14.0,94,0.15,,SKC,1.35,VWS V13.00,2013-01-30 18:06:00,
2013-01-30 12:11:00,54.5,52.8,29.58,WSW,241,5.0,14.0,94,0.15,,SKC,1.35,VWS V13.00,2013-01-30 18:11:00,
2013-01-30 12:16:00,54.3,52.6,29.58,WNW,286,9.0,15.0,94,0.16,,SKC,1.36,VWS V13.00,2013-01-30 18:16:00,
2013-01-30 12:21:00,54.2,52.8,29.58,West,269,7.0,15.0,95,0.17,,SKC,1.37,VWS V13.00,2013-01-30 18:21:00,
2013-01-30 12:26:00,54.0,52.3,29.57,WNW,287,9.0,15.0,94,0.17,,SKC,1.37,VWS V13.00,2013-01-30 18:26:00,
2013-01-30 12:31:00,53.9,52.5,29.58,West,270,4.0,15.0,95,0.17,,SKC,1.37,VWS V13.00,2013-01-30 18:31:00,
2013-01-30 12:36:00,53.7,52.3,29.57,WSW,246,7.0,9.0,95,0.13,,SKC,1.39,VWS V13.00,2013-01-30 18:36:00,
2013-01-30 12:41:00,53.5,52.1,29.58,South,190,6.0,9.0,95,0.13,,SKC,1.39,VWS V13.00,2013-01-30 18:41:00,
2013-01-30 12:46:00,53.3,51.6,29.58,SW,225,7.0,11.0,94,0.14,,SKC,1.40,VWS V13.00,2013-01-30 18:46:00,
2013-01-30 12:51:00,52.9,51.2,29.58,SW,226,4.0,11.0,94,0.15,,SKC,1.41,VWS V13.00,2013-01-30 18:51:00,
2013-01-30 12:56:00,52.6,50.9,29.58,WSW,253,4.0,11.0,94,0.15,,SKC,1.41,VWS V13.00,2013-01-30 18:56:00,
2013-01-30 13:01:00,52.4,50.7,29.58,West,262,4.0,11.0,94,0.15,,SKC,1.42,VWS V13.00,2013-01-30 19:01:00,
2013-01-30 13:06:00,52.3,50.9,29.58,WSW,251,12.0,13.0,95,0.08,,SKC,1.42,VWS V13.00,2013-01-30 19:06:00,
2013-01-30 13:11:00,52.2,50.5,29.59,West,264,8.0,14.0,94,0.09,,SKC,1.43,VWS V13.00,2013-01-30 19:11:00,
2013-01-30 13:16:00,52.1,49.8,29.58,West,278,9.0,14.0,92,0.09,,SKC,1.43,VWS V13.00,2013-01-30 19:16:00,
2013-01-30 13:21:00,51.8,48.7,29.56,NW,305,9.0,15.0,89,0.09,,SKC,1.43,VWS V13.00,2013-01-30 19:21:00,
2013-01-30 13:26:00,51.4,48.3,29.58,West,272,10.0,15.0,89,0.09,,SKC,1.43,VWS V13.00,2013-01-30 19:26:00,
2013-01-30 13:31:00,51.0,48.5,29.58,West,267,6.0,15.0,91,0.10,,SKC,1.44,VWS V13.00,2013-01-30 19:31:00,
2013-01-30 13:36:00,50.7,48.5,29.58,West,277,10.0,10.0,92,0.08,,SKC,1.45,VWS V13.00,2013-01-30 19:36:00,
2013-01-30 13:41:00,50.4,48.2,29.58,West,278,3.0,10.0,92,0.08,,SKC,1.45,VWS V13.00,2013-01-30 19:41:00,
2013-01-30 13:46:00,50.3,48.1,29.58,SW,223,2.0,10.0,92,0.08,,SKC,1.45,VWS V13.00,2013-01-30 19:46:00,
2013-01-30 13:51:00,50.3,48.4,29.58,SW,234,0.0,10.0,93,0.09,,SKC,1.46,VWS V13.00,2013-01-30 19:51:00,
2013-01-30 13:56:00,50.3,48.6,29.59,WSW,241,2.0,10.0,94,0.09,,SKC,1.46,VWS V13.00,2013-01-30 19:56:00,
2013-01-30 14:01:00,50.3,48.6,29.61,SW,225,5.0,10.0,94,0.09,,SKC,1.46,VWS V13.00,2013-01-30 20:01:00,
2013-01-30 14:06:00,50.4,48.7,29.58,SW,227,4.0,9.0,94,0.05,,SKC,1.47,VWS V13.00,2013-01-30 20:06:00,
2013-01-30 14:11:00,50.5,49.1,29.59,West,281,4.0,9.0,95,0.06,,SKC,1.48,VWS V13.00,2013-01-30 20:11:00,
2013-01-30 14:16:00,50.5,48.8,29.59,WSW,257,3.0,9.0,94,0.06,,SKC,1.48,VWS V13.00,2013-01-30 20:16:00,
2013-01-30 14:21:00,50.5,48.8,29.60,WNW,283,6.0,10.0,94,0.07,,SKC,1.49,VWS V13.00,2013-01-30 20:21:00,
2013-01-30 14:26:00,50.5,48.8,29.58,West,259,4.0,10.0,94,0.07,,SKC,1.49,VWS V13.00,2013-01-30 20:26:00,
2013-01-30 14:31:00,50.5,48.8,29.58,WNW,285,6.0,10.0,94,0.07,,SKC,1.49,VWS V13.00,2013-01-30 20:31:00,
2013-01-30 14:36:00,50.4,49.0,29.59,West,269,5.0,9.0,95,0.05,,SKC,1.49,VWS V13.00,2013-01-30 20:36:00,
2013-01-30 14:41:00,50.4,48.7,29.58,WSW,241,5.0,9.0,94,0.05,,SKC,1.49,VWS V13.00,2013-01-30 20:41:00,
2013-01-30 14:46:00,50.4,49.0,29.57,WSW,248,12.0,12.0,95,0.05,,SKC,1.49,VWS V13.00,2013-01-30 20:46:00,
2013-01-30 14:51:00,50.4,48.7,29.58,WSW,248,6.0,12.0,94,0.05,,SKC,1.49,VWS V13.00,2013-01-30 20:51:00,
2013-01-30 14:56:00,50.4,48.7,29.60,SW,218,5.0,12.0,94,0.06,,SKC,1.50,VWS V13.00,2013-01-30 20:56:00,
2013-01-30 15:01:00,50.4,48.7,29.58,SW,219,4.0,12.0,94,0.07,,SKC,1.51,VWS V13.00,2013-01-30 21:01:00,
2013-01-30 15:06:00,50.3,48.9,29.58,South,186,9.0,11.0,95,0.05,,SKC,1.52,VWS V13.00,2013-01-30 21:06:00,
2013-01-30 15:11:00,50.3,48.6,29.58,SW,214,7.0,12.0,94,0.05,,SKC,1.52,VWS V13.00,2013-01-30 21:11:00,
2013-01-30 15:16:00,50.3,48.6,29.56,SSE,166,7.0,12.0,94,0.06,,SKC,1.53,VWS V13.00,2013-01-30 21:16:00,
2013-01-30 15:21:00,50.1,48.4,29.56,SSW,204,6.0,12.0,94,0.06,,SKC,1.53,VWS V13.00,2013-01-30 21:21:00,
2013-01-30 15:26:00,50.0,48.1,29.56,SSW,206,4.0,12.0,93,0.06,,SKC,1.53,VWS V13.00,2013-01-30 21:26:00,
2013-01-30 15:31:00,49.9,48.0,29.55,SSW,210,4.0,12.0,93,0.06,,SKC,1.53,VWS V13.00,2013-01-30 21:31:00,
2013-01-30 15:36:00,49.8,47.9,29.54,SSW,202,2.0,7.0,93,0.04,,SKC,1.53,VWS V13.00,2013-01-30 21:36:00,
2013-01-30 15:41:00,49.8,48.2,29.55,SSW,200,1.0,8.0,94,0.04,,SKC,1.53,VWS V13.00,2013-01-30 21:41:00,
2013-01-30 15:46:00,49.8,47.6,29.55,SW,226,4.0,9.0,92,0.04,,SKC,1.53,VWS V13.00,2013-01-30 21:46:00,
2013-01-30 15:51:00,49.8,47.6,29.55,SSW,202,9.0,9.0,92,0.04,,SKC,1.53,VWS V13.00,2013-01-30 21:51:00,
2013-01-30 15:56:00,49.8,47.9,29.58,SSW,213,7.0,11.0,93,0.04,,SKC,1.53,VWS V13.00,2013-01-30 21:56:00,
2013-01-30 16:01:00,49.7,47.5,29.56,SW,222,5.0,11.0,92,0.04,,SKC,1.53,VWS V13.00,2013-01-30 22:01:00,
2013-01-30 16:06:00,49.6,47.4,29.56,SW,228,7.0,9.0,92,0.01,,SKC,1.53,VWS V13.00,2013-01-30 22:06:00,
2013-01-30 16:11:00,49.6,47.1,29.56,SW,235,9.0,10.0,91,0.01,,SKC,1.53,VWS V13.00,2013-01-30 22:11:00,
2013-01-30 16:16:00,49.6,47.1,29.58,SW,235,6.0,10.0,91,0.01,,SKC,1.53,VWS V13.00,2013-01-30 22:16:00,
2013-01-30 16:21:00,49.5,47.0,29.57,West,267,9.0,11.0,91,0.01,,SKC,1.53,VWS V13.00,2013-01-30 22:21:00,
2013-01-30 16:26:00,49.5,47.0,29.58,SW,215,6.0,11.0,91,0.01,,SKC,1.53,VWS V13.00,2013-01-30 22:26:00,
2013-01-30 16:31:00,49.6,47.1,29.61,SW,236,5.0,13.0,91,0.01,,SKC,1.53,VWS V13.00,2013-01-30 22:31:00,
2013-01-30 16:36:00,49.6,47.1,29.58,West,269,9.0,14.0,91,0.00,,SKC,1.53,VWS V13.00,2013-01-30 22:36:00,
2013-01-30 16:41:00,49.7,46.9,29.59,WSW,246,5.0,19.0,90,0.00,,SKC,1.53,VWS V13.00,2013-01-30 22:41:00,
2013-01-30 16:46:00,49.7,47.2,29.59,WSW,249,7.0,19.0,91,0.00,,SKC,1.53,VWS V13.00,2013-01-30 22:46:00,
2013-01-30 16:51:00,49.7,47.2,29.57,WSW,251,5.0,19.0,91,0.00,,SKC,1.53,VWS V13.00,2013-01-30 22:51:00,
2013-01-30 16:56:00,49.6,47.1,29.57,SW,233,6.0,19.0,91,0.00,,SKC,1.53,VWS V13.00,2013-01-30 22:56:00,
2013-01-30 17:01:00,49.6,47.4,29.58,WSW,244,6.0,19.0,92,0.00,,SKC,1.53,VWS V13.00,2013-01-30 23:01:00,
2013-01-30 17:06:00,49.6,47.4,29.57,WSW,246,3.0,11.0,92,0.00,,SKC,1.53,VWS V13.00,2013-01-30 23:06:00,
2013-01-30 17:11:00,49.5,47.3,29.57,SSW,200,10.0,11.0,92,0.00,,SKC,1.53,VWS V13.00,2013-01-30 23:11:00,
2013-01-30 17:16:00,49.5,47.3,29.57,SW,233,6.0,11.0,92,0.00,,SKC,1.53,VWS V13.00,2013-01-30 23:16:00,
2013-01-30 17:21:00,49.5,47.6,29.59,SW,228,3.0,11.0,93,0.00,,SKC,1.53,VWS V13.00,2013-01-30 23:21:00,
2013-01-30 17:26:00,49.4,47.5,29.58,SSW,212,5.0,11.0,93,0.00,,SKC,1.53,VWS V13.00,2013-01-30 23:26:00,
2013-01-30 17:31:00,49.4,47.5,29.58,SW,227,6.0,11.0,93,0.00,,SKC,1.53,VWS V13.00,2013-01-30 23:31:00,
2013-01-30 17:36:00,49.5,47.6,29.58,WSW,244,5.0,12.0,93,0.00,,SKC,1.53,VWS V13.00,2013-01-30 23:36:00,
2013-01-30 17:41:00,49.5,47.8,29.58,West,263,6.0,12.0,94,0.00,,SKC,1.53,VWS V13.00,2013-01-30 23:41:00,
2013-01-30 17:46:00,49.5,47.8,29.57,WSW,244,5.0,12.0,94,0.00,,SKC,1.53,VWS V13.00,2013-01-30 23:46:00,
2013-01-30 17:51:00,49.5,48.1,29.60,NW,322,13.0,15.0,95,0.01,,SKC,1.54,VWS V13.00,2013-01-30 23:51:00,
2013-01-30 17:56:00,49.4,46.9,29.61,WNW,282,16.0,32.0,91,0.04,,SKC,1.57,VWS V13.00,2013-01-30 23:56:00,
2013-01-30 18:01:00,49.4,46.0,29.60,WSW,254,10.0,32.0,88,0.04,,SKC,1.57,VWS V13.00,2013-01-31 00:01:00,
2013-01-30 18:06:00,49.1,45.4,29.60,WNW,291,10.0,21.0,87,0.04,,SKC,1.57,VWS V13.00,2013-01-31 00:06:00,
2013-01-30 18:11:00,49.0,45.0,29.60,WNW,282,11.0,21.0,86,0.04,,SKC,1.57,VWS V13.00,2013-01-31 00:11:00,
2013-01-30 18:16:00,48.8,44.8,29.61,WSW,250,7.0,24.0,86,0.04,,SKC,1.57,VWS V13.00,2013-01-31 00:16:00,
2013-01-30 18:21:00,48.5,44.5,29.62,WNW,296,9.0,24.0,86,0.04,,SKC,1.57,VWS V13.00,2013-01-31 00:21:00,
2013-01-30 18:26:00,48.5,44.5,29.62,WSW,252,14.0,25.0,86,0.04,,SKC,1.57,VWS V13.00,2013-01-31 00:26:00,
2013-01-30 18:31:00,48.6,44.3,29.63,West,273,10.0,25.0,85,0.04,,SKC,1.57,VWS V13.00,2013-01-31 00:31:00,
2013-01-30 18:36:00,48.6,44.3,29.63,West,267,11.0,19.0,85,0.04,,SKC,1.57,VWS V13.00,2013-01-31 00:36:00,
2013-01-30 18:41:00,48.5,44.2,29.63,West,267,10.0,23.0,85,0.04,,SKC,1.57,VWS V13.00,2013-01-31 00:41:00,
2013-01-30 18:46:00,48.7,43.8,29.63,West,279,12.0,28.0,83,0.04,,SKC,1.57,VWS V13.00,2013-01-31 00:46:00,
2013-01-30 18:51:00,48.7,44.1,29.64,WNW,282,8.0,28.0,84,0.04,,SKC,1.57,VWS V13.00,2013-01-31 00:51:00,
2013-01-30 18:56:00,48.7,43.8,29.64,West,275,23.0,28.0,83,0.04,,SKC,1.58,VWS V13.00,2013-01-31 00:56:00,
2013-01-30 19:01:00,47.1,42.2,29.67,WNW,299,19.0,36.0,83,0.06,,SKC,1.59,VWS V13.00,2013-01-31 01:01:00,
2013-01-30 19:06:00,44.0,40.7,29.69,West,266,13.0,34.0,88,0.03,,SKC,1.60,VWS V13.00,2013-01-31 01:06:00,
2013-01-30 19:11:00,43.2,40.5,29.69,West,267,8.0,34.0,90,0.03,,SKC,1.60,VWS V13.00,2013-01-31 01:11:00,
2013-01-30 19:16:00,43.0,40.3,29.69,West,281,14.0,34.0,90,0.03,,SKC,1.60,VWS V13.00,2013-01-31 01:16:00,
2013-01-30 19:21:00,43.2,40.5,29.69,WNW,295,14.0,34.0,90,0.04,,SKC,1.61,VWS V13.00,2013-01-31 01:21:00,
2013-01-30 19:26:00,43.2,40.2,29.70,WNW,284,9.0,34.0,89,0.04,,SKC,1.61,VWS V13.00,2013-01-31 01:26:00,
2013-01-30 19:31:00,43.4,40.4,29.70,West,278,19.0,34.0,89,0.04,,SKC,1.61,VWS V13.00,2013-01-31 01:31:00,
2013-01-30 19:36:00,43.6,40.3,29.70,WNW,284,11.0,25.0,88,0.04,,SKC,1.61,VWS V13.00,2013-01-31 01:36:00,
2013-01-30 19:40:00,43.6,40.6,29.71,WSW,258,9.0,25.0,89,0.04,,SKC,1.61,VWS V13.00,2013-01-31 01:40:00,
2013-01-30 19:45:00,43.7,40.4,29.72,NW,306,20.0,26.0,88,0.04,,SKC,1.61,VWS V13.00,2013-01-31 01:45:00,
2013-01-30 19:50:00,43.7,40.7,29.72,WNW,288,11.0,26.0,89,0.04,,SKC,1.61,VWS V13.00,2013-01-31 01:50:00,
2013-01-30 19:55:00,43.0,38.8,29.73,WNW,294,16.0,32.0,85,0.04,,SKC,1.61,VWS V13.00,2013-01-31 01:55:00,
2013-01-30 20:00:00,42.3,38.1,29.74,West,279,19.0,32.0,85,0.04,,SKC,1.61,VWS V13.00,2013-01-31 02:00:00,
2013-01-30 20:05:00,42.1,37.0,29.74,NW,323,16.0,29.0,82,0.01,,SKC,1.61,VWS V13.00,2013-01-31 02:05:00,
2013-01-30 20:10:00,41.9,37.1,29.75,WNW,290,18.0,29.0,83,0.01,,SKC,1.61,VWS V13.00,2013-01-31 02:10:00,
2013-01-30 20:15:00,41.8,37.0,29.74,West,263,12.0,29.0,83,0.01,,SKC,1.61,VWS V13.00,2013-01-31 02:15:00,
2013-01-30 20:20:00,41.7,36.3,29.74,WNW,303,27.0,31.0,81,0.01,,SKC,1.61,VWS V13.00,2013-01-31 02:20:00,
2013-01-30 20:25:00,41.6,36.5,29.75,WNW,290,14.0,31.0,82,0.01,,SKC,1.61,VWS V13.00,2013-01-31 02:25:00,
2013-01-30 20:30:00,41.6,36.2,29.75,WNW,291,15.0,31.0,81,0.01,,SKC,1.61,VWS V13.00,2013-01-31 02:30:00,
2013-01-30 20:35:00,41.5,36.1,29.76,WNW,295,13.0,24.0,81,0.00,,SKC,1.61,VWS V13.00,2013-01-31 02:35:00,
2013-01-30 20:40:00,41.5,36.1,29.76,WNW,297,13.0,24.0,81,0.00,,SKC,1.61,VWS V13.00,2013-01-31 02:40:00,
2013-01-30 20:45:00,41.4,35.7,29.77,WNW,301,16.0,24.0,80,0.00,,SKC,1.61,VWS V13.00,2013-01-31 02:45:00,
2013-01-30 20:50:00,41.5,36.1,29.77,WNW,303,13.0,24.0,81,0.00,,SKC,1.61,VWS V13.00,2013-01-31 02:50:00,
2013-01-30 20:55:00,41.5,35.8,29.78,WNW,300,22.0,25.0,80,0.00,,SKC,1.61,VWS V13.00,2013-01-31 02:55:00,
2013-01-30 21:00:00,41.4,35.4,29.78,NW,313,16.0,32.0,79,0.00,,SKC,1.61,VWS V13.00,2013-01-31 03:00:00,
2013-01-30 21:05:00,41.3,35.3,29.79,NW,311,15.0,23.0,79,0.00,,SKC,1.61,VWS V13.00,2013-01-31 03:05:00,
2013-01-30 21:10:00,41.2,34.9,29.80,WNW,300,11.0,29.0,78,0.00,,SKC,1.61,VWS V13.00,2013-01-31 03:10:00,
2013-01-30 21:15:00,41.0,35.0,29.80,WNW,292,25.0,29.0,79,0.00,,SKC,1.61,VWS V13.00,2013-01-31 03:15:00,
2013-01-30 21:20:00,41.0,34.7,29.81,WNW,294,13.0,29.0,78,0.00,,SKC,1.61,VWS V13.00,2013-01-31 03:20:00,
2013-01-30 21:25:00,41.0,34.7,29.81,WNW,290,16.0,29.0,78,0.00,,SKC,1.61,VWS V13.00,2013-01-31 03:25:00,
2013-01-30 21:30:00,40.9,34.9,29.81,West,273,13.0,29.0,79,0.00,,SKC,1.61,VWS V13.00,2013-01-31 03:30:00,
2013-01-30 21:35:00,40.8,35.1,29.82,West,279,15.0,18.0,80,0.00,,SKC,1.61,VWS V13.00,2013-01-31 03:35:00,
2013-01-30 21:40:00,40.8,35.1,29.82,WNW,286,8.0,21.0,80,0.00,,SKC,1.61,VWS V13.00,2013-01-31 03:40:00,
2013-01-30 21:45:00,40.8,34.8,29.82,WNW,300,21.0,21.0,79,0.00,,SKC,1.61,VWS V13.00,2013-01-31 03:45:00,
2013-01-30 21:50:00,40.8,34.8,29.83,WNW,295,18.0,26.0,79,0.00,,SKC,1.61,VWS V13.00,2013-01-31 03:50:00,
2013-01-30 21:55:00,40.6,34.9,29.84,WNW,291,20.0,31.0,80,0.00,,SKC,1.61,VWS V13.00,2013-01-31 03:55:00,
2013-01-30 22:00:00,40.1,34.8,29.84,WNW,299,8.0,31.0,81,0.00,,SKC,1.61,VWS V13.00,2013-01-31 04:00:00,
2013-01-30 22:05:00,39.7,34.0,29.85,NW,316,18.0,27.0,80,0.00,,SKC,1.61,VWS V13.00,2013-01-31 04:05:00,
2013-01-30 22:10:00,39.5,33.8,29.86,NW,318,10.0,27.0,80,0.00,,SKC,1.61,VWS V13.00,2013-01-31 04:10:00,
2013-01-30 22:15:00,39.3,32.4,29.86,NW,317,20.0,27.0,76,0.00,,SKC,1.61,VWS V13.00,2013-01-31 04:15:00,
2013-01-30 22:20:00,39.2,32.3,29.87,WNW,292,14.0,27.0,76,0.00,,SKC,1.61,VWS V13.00,2013-01-31 04:20:00,
2013-01-30 22:25:00,39.0,31.4,29.87,WSW,252,9.0,27.0,74,0.00,,SKC,1.61,VWS V13.00,2013-01-31 04:25:00,
2013-01-30 22:30:00,38.8,30.9,29.88,WNW,288,12.0,27.0,73,0.00,,SKC,1.61,VWS V13.00,2013-01-31 04:30:00,
2013-01-30 22:35:00,38.6,31.0,29.88,WNW,303,18.0,26.0,74,0.00,,SKC,1.61,VWS V13.00,2013-01-31 04:35:00,
2013-01-30 22:40:00,38.2,31.0,29.89,WNW,301,16.0,26.0,75,0.00,,SKC,1.61,VWS V13.00,2013-01-31 04:40:00,
2013-01-30 22:45:00,38.1,30.6,29.89,WNW,298,14.0,26.0,74,0.00,,SKC,1.61,VWS V13.00,2013-01-31 04:45:00,
2013-01-30 22:50:00,38.2,30.7,29.89,NW,326,21.0,28.0,74,0.00,,SKC,1.61,VWS V13.00,2013-01-31 04:50:00,
2013-01-30 22:55:00,38.1,30.2,29.89,WNW,292,18.0,28.0,73,0.00,,SKC,1.61,VWS V13.00,2013-01-31 04:55:00,
2013-01-30 23:00:00,38.1,29.9,29.89,WNW,294,12.0,28.0,72,0.00,,SKC,1.61,VWS V13.00,2013-01-31 05:00:00,
2013-01-30 23:03:00,38.0,30.1,29.90,West,271,13.0,13.0,73,0.00,,SKC,1.61,VWS V13.00,2013-01-31 05:03:00,
2013-01-30 23:08:00,37.9,30.0,29.90,West,275,15.0,22.0,73,0.00,,SKC,1.61,VWS V13.00,2013-01-31 05:08:00,
2013-01-30 23:13:00,37.9,29.7,29.91,NW,312,10.0,22.0,72,0.00,,SKC,1.61,VWS V13.00,2013-01-31 05:13:00,
2013-01-30 23:18:00,37.9,30.4,29.91,West,269,9.0,22.0,74,0.00,,SKC,1.61,VWS V13.00,2013-01-31 05:18:00,
2013-01-30 23:23:00,37.9,30.4,29.91,West,273,8.0,22.0,74,0.00,,SKC,1.61,VWS V13.00,2013-01-31 05:23:00,
2013-01-30 23:28:00,37.8,29.9,29.91,WNW,298,15.0,22.0,73,0.00,,SKC,1.61,VWS V13.00,2013-01-31 05:28:00,
2013-01-30 23:33:00,37.8,29.9,29.91,WNW,296,15.0,21.0,73,0.00,,SKC,1.61,VWS V13.00,2013-01-31 05:33:00,
2013-01-30 23:38:00,37.7,30.5,29.91,WNW,302,14.0,21.0,75,0.00,,SKC,1.61,VWS V13.00,2013-01-31 05:38:00,
2013-01-30 23:43:00,37.7,29.8,29.92,WNW,288,9.0,23.0,73,0.00,,SKC,1.61,VWS V13.00,2013-01-31 05:43:00,
2013-01-30 23:48:00,37.7,30.2,29.92,WNW,301,6.0,23.0,74,0.00,,SKC,1.61,VWS V13.00,2013-01-31 05:48:00,
2013-01-30 23:53:00,37.6,29.7,29.92,WNW,289,15.0,23.0,73,0.00,,SKC,1.61,VWS V13.00,2013-01-31 05:53:00,
2013-01-30 23:58:00,37.5,29.3,29.92,WNW,302,16.0,23.0,72,0.00,,SKC,1.61,VWS V13.00,2013-01-31 05:58:00,